User: anonymous   Login
Location: Mentone
(34.5413°N, 85.5351°W)
Time: 06:38:17
(UTC-06:00)
Language:

ADEOS Rocket - Orbit

View from above orbital plane
View from above orbital plane
View from above satellite
View from above satellite

Ground track
Ground track

The orbit data is extracted from the following two-line orbital elements,

1 24279U 96046C   17053.92781280 -.00000011 +00000-0 +33200-4 0  9997
2 24279 098.7392 012.0800 0299373 219.8316 208.0682 13.47075268008588
Epoch (UTC): 22 February 2017 22:16:03
Eccentricity: 0.0299373
inclination: 98.7392°
perigee height: 859 km
apogee height: 1306 km
right ascension of ascending node: 12.0800°
argument of perigee: 219.8316°
revolutions per day: 13.47075268
mean anomaly at epoch: 208.0682°
orbit number at epoch: 858

The dashed part of the orbit path shows where the satellite is in the earth's shadow,  

DLR